Notices

What's New in latest Release from April 7th, 2021:

- Updated Glossary, including Speed of Maximum Gust, and Total Hourly Precipitation

- Updated national and regional climate services offices contacts and prices information

- Addition of station inventory lists for 1981-2010, 1971-2000, and 1961-1990 Normals.

If you haven't already, please take our survey and provide feedback about our website: https://eccc.sondage-survey.ca/f/LanguageSelection.aspx?s=442ca660-fcf1-47c0-95a9-59707d6fd709

Hourly Data Report for April 08, 2021

NANAIMO A
BRITISH COLUMBIA
Current Station Operator: NAVCAN

49°03'16.000" N
123°52'12.000" W
28.00 m
1025365
YCD

Download Data

Hourly Data (April 2021)
Hourly Data Report for April 8, 2021
TIME
LST
Temp Definition
°C
Dew Point Definition
°C
Rel Hum Definition
%
Precip. Amount Definition
mm

Wind Dir Definition
10's deg

Wind Spd Definition
km/h
Visibility Definition
km
Stn Press Definition
kPa
Hmdx Definition


Wind Chill Definition


Weather Definition


00:00 5.0 0.4 72 LegendMM 36 13 LegendMM 101.35     LegendNANA
01:00 3.7 2.0 89 LegendMM 24 11 LegendMM 101.42     LegendNANA
02:00 3.2 1.6 89 LegendMM 31 9 LegendMM 101.45     LegendNANA
03:00 2.5 0.7 88 LegendMM 26 8 LegendMM 101.52     LegendNANA
04:00 2.6 0.4 85 LegendMM 23 6 LegendMM 101.56     LegendNANA
05:00 2.4 0.2 86 LegendMM 23 15 LegendMM 101.63     LegendNANA
06:00 2.4 0.1 84 LegendMM 29 4 LegendMM 101.75     LegendNANA
07:00 5.0 -2.1 60 LegendMM 27 11 LegendMM 101.84     LegendNANA
08:00 6.5 -3.1 50 LegendMM 30 18 LegendMM 101.91     LegendNANA
09:00 8.0 -4.0 42 LegendMM 33 22 LegendMM 102.00     LegendNANA
10:00 8.9 -4.6 38 LegendMM 26 15 LegendMM 102.08     LegendNANA
11:00 9.8 -5.1 34 LegendMM 31 13 LegendMM 102.14     LegendNANA
12:00 10.3 -0.6 47 LegendMM 5 16 LegendMM 102.16     LegendNANA
13:00 10.5 -2.1 41 LegendMM 3 7 LegendMM 102.21     LegendNANA
14:00 11.4 -2.7 37 LegendMM 12 16 LegendMM 102.22     LegendNANA
15:00 10.7 -2.2 40 LegendMM 13 16 LegendMM 102.22     LegendNANA
16:00 9.9 -2.6 41 LegendMM 13 19 LegendMM 102.22     LegendNANA
17:00 8.9 -2.2 46 LegendMM 9 15 LegendMM 102.20     LegendNANA
18:00 8.2 -1.2 51 LegendMM 10 9 LegendMM 102.18     LegendNANA
19:00 6.9 -0.6 59 LegendMM 22 6 LegendMM 102.16     LegendNANA
20:00 6.6 -3.0 50 LegendMM 25 10 LegendMM 102.20     LegendNANA
21:00 6.3 -3.6 49 LegendMM 25 9 LegendMM 102.19     LegendNANA
22:00 5.5 -3.6 52 LegendMM 29 11 LegendMM 102.13     LegendNANA
23:00 5.0 -3.6 54 LegendMM 27 8 LegendMM 102.13     LegendNANA

Notes on Data Quality.

Legend

  • E = Estimated
  • M = Missing
  • NA = Not Available*
  • [empty] = Indicates an unobserved value
Date modified: